EW5029 Weather Reports


time (UTC)temp
C
wind
direction
speed
KPH
gust
KPH
rain 1hr
cm
rain 24hr
cm
rain mn
cm
humidity
%
barometer
mb
20260507095554 14 276 3.2 11.3 0.00 0.00 0.00 56 1017.1
20260507095051 14 281 3.2 8.0 0.00 0.00 0.00 57 1017.1
20260507094551 14 306 1.6 6.4 0.00 0.00 0.00 58 1017.0
20260507094049 14 55 1.6 6.4 0.00 0.00 0.00 58 1017.0
20260507093548 13 55 1.6 6.4 0.00 0.00 0.00 58 1017.0
20260507093047 13 317 3.2 11.3 0.00 0.00 0.00 58 1016.9
20260507092546 14 292 3.2 8.0 0.00 0.00 0.00 59 1017.0
20260507092043 13 114 3.2 11.3 0.00 0.00 0.00 59 1017.0
20260507091542 13 277 3.2 11.3 0.00 0.00 0.00 60 1016.9
20260507091042 13 285 3.2 8.0 0.00 0.00 0.00 60 1016.9
20260507090641 13 287 3.2 9.7 0.00 0.00 0.00 59 1016.9
20260507090044 13 67 4.8 9.7 0.00 0.00 0.00 61 1016.9
20260507085539 13 294 1.6 9.7 0.00 0.00 0.00 60 1016.9
20260507085038 13 77 3.2 12.9 0.00 0.00 0.00 60 1016.9
20260507084545 13 274 3.2 12.9 0.00 0.00 0.00 61 1016.9
20260507084036 13 63 1.6 9.7 0.00 0.00 0.00 61 1016.9
20260507083535 13 74 3.2 9.7 0.00 0.00 0.00 62 1016.9
20260507083046 12 72 4.8 9.7 0.00 0.00 0.00 62 1016.9
20260507082533 12 284 3.2 8.0 0.00 0.00 0.00 61 1016.9
20260507082030 13 288 1.6 6.4 0.00 0.00 0.00 60 1016.9
20260507081529 13 65 1.6 6.4 0.00 0.00 0.00 61 1016.8
20260507081029 12 313 1.6 8.0 0.00 0.00 0.00 61 1016.8
20260507080530 12 63 1.6 8.0 0.00 0.00 0.00 61 1016.8
20260507080025 12 81 1.6 8.0 0.00 0.00 0.00 62 1016.8
20260507075528 12 76 1.6 8.0 0.00 0.00 0.00 63 1016.7
20260507075025 12 53 1.6 8.0 0.00 0.00 0.00 64 1016.8
20260507074522 12 10 3.2 8.0 0.00 0.00 0.00 64 1016.7
20260507074021 11 5 3.2 9.7 0.00 0.00 0.00 66 1016.7
20260507073524 11 32 1.6 9.7 0.00 0.00 0.00 66 1016.7
20260507073019 11 88 4.8 9.7 0.00 0.00 0.00 67 1016.7
20260507072519 11 45 3.2 8.0 0.00 0.00 0.00 69 1016.7
20260507072015 11 339 1.6 6.4 0.00 0.00 0.00 71 1016.6
20260507071514 10 348 0.0 6.4 0.00 0.00 0.00 72 1016.6
20260507071014 10 82 0.0 8.0 0.00 0.00 0.00 73 1016.6
20260507070512 10 34 1.6 12.9 0.00 0.00 0.00 74 1016.6
20260507070013 10 62 3.2 12.9 0.00 0.00 0.00 75 1016.6
20260507065509 10 10 3.2 6.4 0.00 0.00 0.00 76 1016.6
20260507065008 10 5 1.6 8.0 0.00 0.00 0.00 78 1016.6
20260507064508 9 313 3.2 8.0 0.00 0.00 0.00 80 1016.6
20260507064007 9 315 1.6 6.4 0.00 0.00 0.00 82 1016.6
20260507063507 9 27 0.0 4.8 0.00 0.00 0.00 84 1016.5
20260507063005 8 292 1.6 4.8 0.00 0.00 0.00 85 1016.5
20260507062506 8 331 0.0 4.8 0.00 0.00 0.00 87 1016.5
20260507062004 8 308 0.0 4.8 0.00 0.00 0.00 88 1016.4
20260507061504 8 307 0.0 3.2 0.00 0.00 0.00 89 1016.4
20260507061003 7 282 1.6 3.2 0.00 0.00 0.00 90 1016.3
20260507060502 7 329 0.0 3.2 0.00 0.00 0.00 91 1016.3
20260507060007 7 320 0.0 3.2 0.00 0.00 0.00 92 1016.3
20260507055502 7 306 0.0 0.0 0.00 0.00 0.00 92 1016.3
20260507055001 7 306 0.0 0.0 0.00 0.00 0.00 92 1016.2
20260507054501 7 302 0.0 0.0 0.00 0.00 0.00 92 1016.2
20260507054100 6 302 0.0 0.0 0.00 0.00 0.00 92 1016.2
20260507053600 6 302 0.0 1.6 0.00 0.00 0.00 92 1016.1
20260507053059 6 302 0.0 4.8 0.00 0.00 0.00 92 1016.2
20260507052600 6 302 0.0 4.8 0.00 0.00 0.00 92 1016.1
20260507052058 6 336 0.0 3.2 0.00 0.00 0.00 93 1016.0
20260507051558 6 11 0.0 0.0 0.00 0.00 0.00 92 1016.0
20260507051059 6 11 0.0 0.0 0.00 0.00 0.00 92 1015.9
20260507050559 6 11 0.0 0.0 0.00 0.00 0.00 92 1015.9
20260507050057 6 11 0.0 0.0 0.00 0.00 0.00 92 1015.9
20260507045555 6 11 0.0 1.6 0.00 0.00 0.00 92 1015.8
20260507045053 5 11 0.0 1.6 0.00 0.00 0.00 92 1015.7
20260507044552 5 11 0.0 0.0 0.00 0.00 0.00 91 1015.6
20260507044055 5 11 0.0 0.0 0.00 0.00 0.00 91 1015.7
20260507043551 5 11 0.0 0.0 0.00 0.00 0.00 91 1015.6
20260507043051 5 11 0.0 1.6 0.00 0.00 0.00 91 1015.6
20260507042551 5 11 0.0 0.0 0.00 0.00 0.00 91 1015.5
20260507042050 5 11 0.0 0.0 0.00 0.00 0.00 90 1015.5
20260507041550 5 11 0.0 0.0 0.00 0.00 0.00 90 1015.5
20260507041050 5 11 0.0 0.0 0.00 0.00 0.00 90 1015.5
20260507040548 5 11 0.0 0.0 0.00 0.00 0.00 90 1015.4
20260507040047 5 11 0.0 0.0 0.00 0.00 0.00 89 1015.4
20260507035546 5 11 0.0 0.0 0.00 0.00 0.00 89 1015.4
20260507035047 5 11 0.0 0.0 0.00 0.00 0.00 89 1015.4
20260507034547 5 11 0.0 0.0 0.00 0.00 0.00 89 1015.3
20260507034045 5 11 0.0 0.0 0.00 0.00 0.00 89 1015.3
20260507033547 5 11 0.0 0.0 0.00 0.00 0.00 88 1015.2
20260507033043 6 11 0.0 0.0 0.00 0.00 0.00 89 1015.2
20260507032545 6 11 0.0 0.0 0.00 0.00 0.00 88 1015.2
20260507032046 6 11 0.0 0.0 0.00 0.00 0.00 88 1015.2
20260507031541 6 11 0.0 0.0 0.00 0.00 0.00 88 1015.2
20260507031044 6 11 0.0 0.0 0.00 0.00 0.00 88 1015.1
20260507030540 6 11 0.0 1.6 0.00 0.00 0.00 87 1015.1
20260507030040 6 11 0.0 1.6 0.00 0.00 0.00 87 1015.1
20260507025538 6 11 0.0 0.0 0.00 0.00 0.00 86 1015.1
20260507025041 6 11 0.0 0.0 0.00 0.00 0.00 86 1015.0
20260507024537 6 11 0.0 0.0 0.00 0.00 0.00 86 1015.1
20260507024038 6 11 0.0 0.0 0.00 0.00 0.00 86 1015.1
20260507023544 6 11 0.0 0.0 0.00 0.00 0.00 86 1015.1
20260507023040 6 11 0.0 0.0 0.00 0.00 0.00 86 1015.0
20260507022533 7 11 0.0 0.0 0.00 0.00 0.00 86 1015.0
20260507022034 7 11 0.0 0.0 0.00 0.00 0.00 85 1015.0
20260507021532 7 11 0.0 0.0 0.00 0.00 0.00 85 1015.0
20260507021033 7 11 0.0 0.0 0.00 0.00 0.00 85 1015.0
20260507020531 7 11 0.0 0.0 0.00 0.00 0.00 85 1014.9
20260507020029 7 11 0.0 0.0 0.00 0.00 0.00 84 1014.9
20260507015528 7 11 0.0 0.0 0.00 0.00 0.00 84 1014.7
20260507015028 7 11 0.0 0.0 0.00 0.00 0.00 84 1014.7
20260507014538 7 11 0.0 0.0 0.00 0.00 0.00 84 1014.6
20260507014027 7 299 0.0 3.2 0.00 0.00 0.00 84 1014.6
20260507013526 7 297 0.0 3.2 0.00 0.00 0.00 84 1014.7
20260507013027 7 342 0.0 4.8 0.00 0.00 0.00 83 1014.6
20260507012525 7 298 0.0 4.8 0.00 0.00 0.00 83 1014.7
20260507012025 7 317 0.0 4.8 0.00 0.00 0.00 83 1014.7
20260507011527 8 331 0.0 4.8 0.00 0.00 0.00 83 1014.6
20260507011023 8 299 1.6 4.8 0.00 0.00 0.00 83 1014.6
20260507010526 8 28 0.0 6.4 0.00 0.00 0.00 82 1014.6
20260507010022 8 305 1.6 6.4 0.00 0.00 0.00 82 1014.6
20260507005622 8 304 1.6 4.8 0.00 0.00 0.00 82 1014.6
20260507005021 8 36 1.6 6.4 0.00 0.00 0.00 82 1014.6
20260507004532 8 37 0.0 4.8 0.00 0.00 0.00 82 1014.5
20260507004020 8 329 0.0 6.4 0.00 0.00 0.00 82 1014.5
20260507003521 8 48 1.6 8.0 0.00 0.00 0.00 82 1014.5
20260507003019 8 331 3.2 8.0 0.00 0.00 0.00 82 1014.4
20260507002519 8 314 1.6 6.4 0.00 0.00 0.00 82 1014.5
20260507002019 8 67 1.6 6.4 0.00 0.00 0.00 82 1014.5
20260507001524 8 339 1.6 8.0 0.00 0.00 0.00 82 1014.5
20260507001017 8 27 3.2 8.0 0.00 0.00 0.00 82 1014.4
20260507000517 8 323 1.6 8.0 0.00 0.00 0.00 82 1014.4
20260507000024 8 59 1.6 8.0 0.00 0.00 0.00 82 1014.4
20260506235516 8 323 1.6 12.9 0.00 0.00 0.00 82 1014.4
20260506235015 8 298 3.2 12.9 0.00 0.00 0.00 82 1014.4
20260506234521 8 40 1.6 6.4 0.00 0.00 0.00 82 1014.4
20260506234015 8 71 1.6 6.4 0.00 0.00 0.00 82 1014.4
20260506233515 8 290 1.6 8.0 0.00 0.00 0.00 82 1014.4
20260506233014 8 90 1.6 8.0 0.00 0.00 0.00 82 1014.5
20260506232514 8 90 1.6 11.3 0.00 0.00 0.00 82 1014.4
20260506232013 8 41 3.2 11.3 0.00 0.00 0.00 82 1014.4
20260506231528 8 10 4.8 9.7 0.00 0.00 0.00 82 1014.4
20260506231013 8 26 3.2 6.4 0.00 0.00 0.00 82 1014.4
20260506230513 8 19 0.0 6.4 0.00 0.00 0.00 82 1014.4
20260506230011 8 295 1.6 8.0 0.00 0.00 0.00 82 1014.4
20260506225510 8 43 1.6 9.7 0.00 0.00 0.00 82 1014.3
20260506225010 8 74 3.2 8.0 0.00 0.00 0.00 82 1014.3
20260506224509 9 304 1.6 6.4 0.00 0.00 0.00 82 1014.3
20260506224008 9 30 1.6 8.0 0.00 0.00 0.00 82 1014.3
20260506223507 9 304 3.2 8.0 0.00 0.00 0.00 82 1014.2
20260506223006 9 351 3.2 8.0 0.00 0.00 0.00 82 1014.2
20260506222606 9 64 1.6 8.0 0.00 0.00 0.00 81 1014.2
20260506222006 9 39 3.2 9.7 0.00 0.00 0.00 81 1014.2
20260506221505 9 342 3.2 12.9 0.00 0.00 0.00 81 1014.1
20260506221004 9 311 3.2 12.9 0.00 0.00 0.00 80 1014.0
20260506220504 9 311 3.2 8.0 0.00 0.00 0.00 80 1014.0
20260506220003 10 345 1.6 8.0 0.00 0.00 0.00 80 1014.0
20260506215501 10 360 1.6 6.4 0.00 0.00 0.00 79 1014.0
20260506215003 10 296 0.0 6.4 0.00 0.00 0.00 79 1014.0
20260506214601 10 327 1.6 9.7 0.00 0.00 0.00 78 1013.9
20260506214100 10 350 3.2 9.7 0.00 0.00 0.00 77 1013.9
20260506213602 10 15 1.6 8.0 0.00 0.00 0.00 77 1013.8
20260506213136 10 285 3.2 9.7 0.00 0.00 0.00 76 1013.7
20260506212558 10 50 1.6 6.4 0.00 0.00 0.00 76 1013.7
20260506212059 10 292 1.6 6.4 0.00 0.00 0.00 76 1013.7
20260506211616 10 312 1.6 8.0 0.00 0.00 0.00 75 1013.7
20260506211057 10 290 0.0 8.0 0.00 0.00 0.00 75 1013.6
20260506210556 10 307 0.0 8.0 0.00 0.00 0.00 75 1013.6
20260506205555 10 293 0.0 6.4 0.00 0.00 0.00 74 1013.5
20260506205054 10 325 0.0 6.4 0.00 0.00 0.00 74 1013.5
20260506204558 11 302 1.6 8.0 0.00 0.00 0.00 74 1013.5
20260506204053 11 290 3.2 8.0 0.00 0.00 0.00 73 1013.4
20260506203554 11 344 1.6 8.0 0.00 0.00 0.00 73 1013.4
20260506203054 11 38 1.6 8.0 0.00 0.00 0.00 73 1013.3
20260506202555 11 51 3.2 8.0 0.00 0.00 0.00 72 1013.3
20260506202057 11 302 1.6 8.0 0.00 0.00 0.00 72 1013.3
20260506201600 11 277 1.6 9.7 0.00 0.00 0.00 71 1013.2
20260506201052 11 327 3.2 16.1 0.00 0.00 0.00 71 1013.2
20260506200551 11 37 3.2 16.1 0.00 0.00 0.00 70 1013.2
20260506200058 11 309 0.0 6.4 0.00 0.00 0.00 69 1013.1
20260506195550 11 331 1.6 12.9 0.00 0.00 0.00 68 1013.0
20260506195049 11 271 1.6 12.9 0.00 0.00 0.00 67 1012.9
20260506194558 11 292 3.2 12.9 0.00 0.00 0.00 66 1012.9
20260506194052 11 306 3.2 12.9 0.00 0.00 0.00 66 1012.9
20260506193552 11 5 3.2 9.7 0.00 0.00 0.00 66 1012.8
20260506193047 11 338 3.2 11.3 0.00 0.00 0.00 66 1012.8
20260506192551 11 322 3.2 14.5 0.00 0.00 0.00 66 1012.7
20260506192046 11 304 3.2 14.5 0.00 0.00 0.00 65 1012.6
20260506191548 12 350 4.8 9.7 0.00 0.00 0.00 65 1012.6
20260506191046 12 32 1.6 9.7 0.00 0.00 0.00 65 1012.5
20260506190544 12 298 1.6 9.7 0.00 0.00 0.00 64 1012.4
20260506190043 12 300 3.2 12.9 0.00 0.00 0.00 64 1012.3
20260506185543 12 295 4.8 14.5 0.00 0.00 0.00 64 1012.3
20260506185045 12 292 3.2 16.1 0.00 0.00 0.00 65 1012.2
20260506184541 12 338 4.8 16.1 0.00 0.00 0.00 65 1012.1
20260506184041 12 279 3.2 14.5 0.00 0.00 0.00 65 1012.1
20260506183542 12 355 3.2 14.5 0.00 0.00 0.00 66 1012.0
20260506183055 12 268 3.2 8.0 0.00 0.00 0.00 65 1011.9
20260506182539 12 280 1.6 12.9 0.00 0.00 0.00 66 1011.9
20260506182042 12 289 4.8 14.5 0.00 0.00 0.00 65 1011.9
20260506181539 12 74 4.8 14.5 0.00 0.00 0.00 65 1011.8
20260506181037 12 325 4.8 12.9 0.00 0.00 0.00 65 1011.8
20260506180539 13 330 3.2 11.3 0.00 0.00 0.00 65 1011.8
20260506180040 13 90 3.2 16.1 0.00 0.00 0.00 65 1011.6
20260506175538 13 293 4.8 16.1 0.00 0.00 0.00 65 1011.6
20260506175035 13 301 3.2 11.3 0.00 0.00 0.00 65 1011.5
20260506174539 12 85 4.8 11.3 0.00 0.00 0.00 65 1011.5
20260506174035 12 92 3.2 8.0 0.00 0.00 0.00 65 1011.4
20260506173533 12 56 3.2 9.7 0.00 0.00 0.00 64 1011.3
20260506173034 12 13 1.6 9.7 0.00 0.00 0.00 64 1011.3
20260506172532 12 57 1.6 6.4 0.00 0.00 0.00 64 1011.2
20260506172032 12 300 0.0 9.7 0.00 0.00 0.00 63 1011.1
20260506171537 12 338 0.0 9.7 0.00 0.00 0.00 63 1011.1
20260506171033 12 58 3.2 11.3 0.00 0.00 0.00 64 1011.2
20260506170531 12 46 1.6 12.9 0.00 0.00 0.00 63 1011.1
20260506170034 13 68 3.2 12.9 0.00 0.00 0.00 63 1011.1
20260506165532 13 79 3.2 9.7 0.00 0.00 0.00 61 1011.1
20260506165031 13 132 1.6 14.5 0.00 0.00 0.00 61 1011.1
20260506164531 13 36 0.0 9.7 0.00 0.00 0.00 61 1011.1
20260506164034 13 82 1.6 9.7 0.00 0.00 0.00 60 1011.0
20260506163530 13 99 1.6 17.7 0.00 0.00 0.00 59 1011.0
20260506163033 13 67 3.2 17.7 0.00 0.00 0.00 58 1011.0
20260506162529 13 46 3.2 8.0 0.00 0.00 0.00 58 1010.9
20260506162033 13 279 3.2 8.0 0.00 0.00 0.00 57 1010.9
20260506161530 13 328 3.2 8.0 0.00 0.00 0.00 57 1010.8
20260506161029 13 60 1.6 8.0 0.00 0.00 0.00 56 1010.8
20260506160531 13 344 3.2 16.1 0.00 0.00 0.00 56 1010.8
20260506160030 13 43 1.6 16.1 0.00 0.00 0.00 56 1010.8
20260506155530 13 24 3.2 14.5 0.00 0.00 0.00 55 1010.9
20260506155029 13 54 3.2 12.9 0.00 0.00 0.00 54 1010.9
20260506154532 13 71 3.2 12.9 0.00 0.00 0.00 53 1010.8
20260506154029 13 265 1.6 14.5 0.00 0.00 0.00 52 1010.8
20260506153528 13 62 3.2 14.5 0.00 0.00 0.00 51 1010.9
20260506153028 13 19 1.6 14.5 0.00 0.00 0.00 50 1010.9
20260506152528 13 36 4.8 11.3 0.00 0.00 0.00 50 1010.9
20260506152030 13 49 1.6 8.0 0.00 0.00 0.00 51 1010.8
20260506151529 13 54 1.6 9.7 0.00 0.00 0.00 50 1010.8
20260506151029 13 113 4.8 9.7 0.00 0.00 0.00 50 1010.7
20260506150527 13 57 3.2 14.5 0.00 0.00 0.00 49 1010.7
20260506150027 14 71 3.2 11.3 0.00 0.00 0.00 49 1010.8
20260506145529 14 321 3.2 9.7 0.00 0.00 0.00 48 1010.7
20260506145026 14 84 1.6 11.3 0.00 0.00 0.00 49 1010.7
20260506144526 14 11 1.6 16.1 0.00 0.00 0.00 49 1010.6
20260506144028 15 360 3.2 16.1 0.00 0.00 0.00 48 1010.6
20260506143526 15 24 3.2 14.5 0.00 0.00 0.00 48 1010.6
20260506143031 15 77 4.8 14.5 0.00 0.00 0.00 47 1010.7
20260506142525 15 98 3.2 17.7 0.00 0.00 0.00 49 1010.5
20260506142029 15 36 3.2 17.7 0.00 0.00 0.00 49 1010.5
20260506141525 15 62 4.8 16.1 0.00 0.00 0.00 50 1010.6
20260506141029 15 71 4.8 16.1 0.00 0.00 0.00 49 1010.5
20260506140525 15 79 6.4 19.3 0.00 0.00 0.00 49 1010.6
20260506140024 15 40 6.4 19.3 0.00 0.00 0.00 49 1010.5
20260506135524 15 302 3.2 19.3 0.00 0.00 0.00 48 1010.6
20260506135024 15 70 1.6 22.5 0.00 0.00 0.00 48 1010.4
20260506134524 15 44 4.8 22.5 0.00 0.00 0.00 48 1010.5
20260506134024 15 305 3.2 9.7 0.00 0.00 0.00 49 1010.5
20260506133526 15 335 3.2 14.5 0.00 0.00 0.00 49 1010.4
20260506133025 15 36 4.8 14.5 0.00 0.00 0.00 49 1010.5
20260506132525 15 58 3.2 11.3 0.00 0.00 0.00 49 1010.5
20260506132027 15 75 1.6 14.5 0.00 0.00 0.00 48 1010.4
20260506131523 16 73 3.2 12.9 0.00 0.00 0.00 47 1010.2
20260506131023 16 40 3.2 16.1 0.00 0.00 0.00 49 1010.3
20260506130523 16 71 4.8 16.1 0.00 0.00 0.00 48 1010.3
20260506130024 16 133 1.6 16.1 0.00 0.00 0.00 48 1010.2
20260506125522 16 302 4.8 16.1 0.00 0.00 0.00 47 1010.3
20260506125021 16 58 3.2 19.3 0.00 0.00 0.00 49 1010.3
20260506124518 15 292 4.8 19.3 0.00 0.00 0.00 47 1010.3
20260506124018 15 247 6.4 17.7 0.00 0.00 0.00 48 1010.3
20260506123517 15 61 3.2 22.5 0.00 0.00 0.00 49 1010.2
20260506123018 15 296 3.2 16.1 0.00 0.00 0.00 51 1010.3
20260506122515 15 114 3.2 16.1 0.00 0.00 0.00 50 1010.3
20260506122014 15 74 6.4 17.7 0.00 0.00 0.00 50 1010.3
20260506121521 15 127 4.8 20.9 0.00 0.00 0.00 50 1010.2
20260506121013 15 32 3.2 12.9 0.00 0.00 0.00 50 1010.3
20260506120514 15 269 4.8 19.3 0.00 0.00 0.00 51 1010.3
20260506120012 15 24 6.4 19.3 0.00 0.00 0.00 51 1010.2
20260506115512 15 19 4.8 17.7 0.00 0.00 0.00 52 1010.2
20260506115011 15 54 4.8 14.5 0.00 0.00 0.00 51 1010.3
20260506114511 15 311 4.8 19.3 0.00 0.00 0.00 50 1010.3
20260506114011 15 340 4.8 19.3 0.00 0.00 0.00 51 1010.3
20260506113510 14 82 4.8 24.1 0.00 0.00 0.00 50 1010.3
20260506113018 14 70 8.0 24.1 0.00 0.00 0.00 49 1010.3
20260506112510 14 44 6.4 20.9 0.00 0.00 0.00 52 1010.3
20260506112013 14 331 4.8 29.0 0.00 0.00 0.00 54 1010.2
20260506111509 14 51 6.4 29.0 0.00 0.00 0.00 56 1010.3
20260506111013 14 118 6.4 17.7 0.00 0.00 0.00 59 1010.2
20260506110509 14 25 4.8 17.7 0.00 0.00 0.00 59 1010.2
20260506110011 15 49 3.2 14.5 0.00 0.00 0.00 58 1010.1
20260506105506 14 331 3.2 14.5 0.00 0.00 0.00 55 1010.2
20260506105005 14 54 4.8 17.7 0.00 0.00 0.00 62 1010.3
20260506104505 14 100 3.2 17.7 0.00 0.00 0.00 61 1010.2
20260506104005 14 136 4.8 16.1 0.00 0.00 0.00 60 1010.4
20260506103504 13 46 3.2 16.1 0.00 0.00 0.00 60 1010.2
20260506103010 13 58 6.4 16.1 0.00 0.00 0.00 60 1010.2
20260506102502 13 16 3.2 16.1 0.00 0.00 0.00 61 1010.2
20260506102102 13 26 6.4 16.1 0.00 0.00 0.00 63 1010.2
20260506101600 13 355 6.4 16.1 0.00 0.00 0.00 65 1010.3
20260506101058 13 115 6.4 16.1 0.00 0.00 0.00 67 1010.2
20260506100558 13 72 3.2 14.5 0.00 0.00 0.00 68 1010.1
20260506100056 13 306 4.8 14.5 0.00 0.00 0.00 69 1010.1